Hyannis, MA

9:42 PM EDT on June 24, 2017 (GMT -0400)
Barnstable Municipal-Boardman-Polando Field

Weather History for KHYA - October, 2013

Change the Weather History Date:

Monday, October 21, 2013

  Actual Average Record
Temperature  
Mean Temperature 50 °F -  
Max Temperature 66 °F 58 °F 76 °F (1984)
Min Temperature 36 °F 40 °F 25 °F (1972)
Degree Days  
Heating Degree Days 15    
Moisture  
Dew Point 39 °F    
Average Humidity 64    
Maximum Humidity 89    
Minimum Humidity 33    
Precipitation  
Precipitation 0.00 in - - ()
Sea Level Pressure  
Sea Level Pressure 30.07 in    
Wind  
Wind Speed 4 mph (WSW)    
Max Wind Speed 16 mph    
Max Gust Speed 22 mph    
Visibility 10 miles    
Events      
Averages and records for this station are not official NWS values.
T = Trace of Precipitation, MM = Missing Value Source: NWS Daily Summary

Daily Weather History Graph

Daily Weather History Graph

Search for Another Location

Airport or City:

Trip Planner

Search our weather history database for the weather conditions in past years. The results will help you decide how hot, cold, wet, or windy it might be!

Date:

Astronomy

Oct. 21, 2013 Rise Set
Actual Time 7:00 AM EDT 5:50 PM EDT
Civil Twilight 6:32 AM EDT 6:18 PM EDT
Nautical Twilight 5:59 AM EDT 6:50 PM EDT
Astronomical Twilight 5:27 AM EDT 7:23 PM EDT
Moon 7:38 PM EDT (10/21) 9:34 AM EDT (10/21)
Length of Visible Light 11h 46m
Length of Day
10h 50m
Waning Gibbous, 93% of the Moon is Illuminated
Oct 21
Waning Gibbous
Oct 26
Last Quarter
Nov 3
New
Nov 10
First Quarter
Nov 17
Full

Hourly Weather History & Observations

Time (EDT) Temp. Dew Point Humidity Pressure Visibility Wind Dir Wind Speed Gust Speed Precip Events Conditions
12:56 AM 39.0 °F 34.0 °F 82% 30.03 in 10.0 mi Calm Calm - N/A   Clear
1:56 AM 37.9 °F 34.0 °F 86% 30.05 in 10.0 mi Calm Calm - N/A   Clear
2:56 AM 37.9 °F 34.0 °F 86% 30.05 in 10.0 mi Calm Calm - N/A   Clear
3:56 AM 37.0 °F 33.1 °F 86% 30.06 in 10.0 mi Calm Calm - N/A   Clear
4:56 AM 36.0 °F 33.1 °F 89% 30.07 in 10.0 mi Calm Calm - N/A   Clear
5:56 AM 37.0 °F 33.1 °F 86% 30.08 in 10.0 mi Calm Calm - N/A   Clear
6:56 AM 37.0 °F 34.0 °F 89% 30.10 in 10.0 mi Calm Calm - N/A   Clear
7:56 AM 39.9 °F 36.0 °F 86% 30.12 in 10.0 mi Calm Calm - N/A   Clear
8:56 AM 54.0 °F 44.1 °F 69% 30.12 in 10.0 mi Calm Calm - N/A   Clear
9:56 AM 60.1 °F 37.9 °F 44% 30.12 in 10.0 mi West 5.8 mph - N/A   Clear
10:56 AM 63.0 °F 39.0 °F 41% 30.11 in 10.0 mi WSW 11.5 mph - N/A   Clear
11:56 AM 64.9 °F 36.0 °F 34% 30.10 in 10.0 mi West 12.7 mph 17.3 mph N/A   Clear
12:56 PM 64.9 °F 35.1 °F 33% 30.08 in 10.0 mi NW 4.6 mph - N/A   Clear
1:56 PM 64.9 °F 41.0 °F 42% 30.07 in 10.0 mi SW 16.1 mph 21.9 mph N/A   Clear
2:56 PM 64.0 °F 36.0 °F 35% 30.06 in 10.0 mi SW 15.0 mph - N/A   Clear
3:56 PM 64.0 °F 37.0 °F 37% 30.05 in 10.0 mi SW 10.4 mph - N/A   Clear
4:56 PM 62.1 °F 39.9 °F 44% 30.05 in 10.0 mi WSW 9.2 mph - N/A   Clear
5:56 PM 57.0 °F 44.1 °F 62% 30.06 in 10.0 mi SW 8.1 mph - N/A   Clear
6:56 PM 57.9 °F 45.0 °F 62% 30.07 in 10.0 mi SW 9.2 mph - N/A   Clear
7:56 PM 57.0 °F 45.0 °F 64% 30.07 in 10.0 mi SW 9.2 mph - N/A   Clear
8:56 PM 57.9 °F 46.0 °F 65% 30.07 in 10.0 mi SW 10.4 mph - N/A   Clear
9:56 PM 57.9 °F 46.0 °F 65% 30.06 in 10.0 mi SW 9.2 mph - N/A   Clear
10:56 PM 57.9 °F 46.0 °F 65% 30.05 in 10.0 mi SW 9.2 mph - N/A   Clear
11:56 PM 54.0 °F 46.0 °F 75% 30.02 in 10.0 mi SW 3.5 mph - N/A   Clear